DW8945 Weather Reports


Display with metric or nautical units.
time (UTC)temp
F
wind
direction
speed
MPH
gust
MPH
rain 1hr
in
rain 24hr
in
rain mn
in
humidity
%
barometer
mb
20260903192900 76 130 3.0 5.0 0.00 0.00 0.00 81 1010.9
20260903192356 76 130 2.0 5.0 0.00 0.00 0.00 81 1011.0
20260903191858 76 131 1.0 5.0 0.00 0.00 0.00 82 1010.9
20260903191421 75 132 2.0 8.0 0.00 0.00 0.00 82 1010.8
20260903190924 76 93 3.0 8.0 0.00 0.00 0.00 82 1010.9
20260903190359 75 109 1.0 4.0 0.00 0.00 0.00 83 1011.0
20260903185905 75 109 1.0 6.0 0.00 0.00 0.00 84 1011.2
20260903185349 74 96 1.0 6.0 0.00 0.00 0.00 84 1011.3
20260903184850 74 130 1.0 4.0 0.00 0.00 0.00 85 1011.4
20260903184355 74 130 1.0 4.0 0.00 0.00 0.00 85 1011.4
20260903183921 74 131 2.0 4.0 0.00 0.00 0.00 84 1011.5
20260903183358 74 131 0.0 3.0 0.00 0.00 0.00 85 1011.6
20260903182902 74 131 0.0 3.0 0.00 0.00 0.00 85 1011.7
20260903182346 74 131 1.0 4.0 0.00 0.00 0.00 84 1011.8
20260903181847 74 131 2.0 5.0 0.00 0.00 0.00 84 1011.8
20260903181350 74 121 1.0 5.0 0.00 0.00 0.00 84 1011.8
20260903180855 75 122 2.0 5.0 0.00 0.00 0.00 83 1011.8
20260903180350 75 122 1.0 3.0 0.00 0.00 0.00 83 1011.8
20260903175859 75 123 0.0 4.0 0.00 0.00 0.00 83 1011.8
20260903175401 75 124 1.0 4.0 0.00 0.00 0.00 82 1011.9
20260903174844 75 123 0.0 3.0 0.00 0.00 0.00 82 1011.9
20260903174351 76 123 0.0 2.0 0.00 0.00 0.00 82 1012.0
20260903173855 76 123 0.0 2.0 0.00 0.00 0.00 83 1012.0
20260903173358 75 123 0.0 2.0 0.00 0.00 0.00 83 1012.1
20260903172844 75 123 0.0 4.0 0.00 0.00 0.00 83 1011.9
20260903172409 75 123 1.0 4.0 0.00 0.00 0.00 83 1011.9
20260903171851 75 123 1.0 3.0 0.00 0.00 0.00 83 1011.9
20260903171354 75 49 0.0 2.0 0.00 0.00 0.00 84 1011.9
20260903170859 75 55 0.0 2.0 0.00 0.00 0.00 85 1011.9
20260903170357 74 55 0.0 2.0 0.00 0.00 0.00 85 1011.9
20260903165847 74 56 0.0 2.0 0.00 0.00 0.00 85 1011.9
20260903165349 74 323 0.0 4.0 0.00 0.00 0.00 86 1011.9
20260903164849 74 323 1.0 4.0 0.00 0.00 0.00 86 1011.9
20260903164355 74 355 0.0 2.0 0.00 0.00 0.00 86 1011.9
20260903163900 74 336 0.0 2.0 0.00 0.00 0.00 87 1011.8
20260903163401 73 321 0.0 2.0 0.00 0.00 0.00 89 1011.8
20260903162847 73 320 0.0 2.0 0.00 0.00 0.00 89 1011.8
20260903162352 72 320 1.0 2.0 0.00 0.00 0.00 90 1011.8
20260903161853 72 320 0.0 2.0 0.00 0.00 0.00 90 1011.9
20260903161359 72 320 0.0 1.0 0.00 0.00 0.00 91 1011.9
20260903160844 72 319 0.0 1.0 0.00 0.00 0.00 92 1012.0
20260903160352 71 319 0.0 2.0 0.00 0.00 0.00 93 1012.0
20260903155857 71 319 0.0 3.0 0.00 0.00 0.00 93 1011.9
20260903155344 70 319 1.0 3.0 0.00 0.00 0.00 93 1012.0
20260903154850 70 318 0.0 2.0 0.00 0.00 0.00 93 1012.1
20260903154353 70 318 0.0 2.0 0.00 0.00 0.00 94 1012.2
20260903153859 69 317 0.0 2.0 0.00 0.00 0.00 94 1012.4
20260903153402 69 312 0.0 2.0 0.00 0.00 0.00 94 1012.4
20260903152847 69 307 0.0 2.0 0.00 0.00 0.00 94 1012.5
20260903152351 69 302 0.0 1.0 0.00 0.00 0.00 95 1012.5
20260903151853 69 302 0.0 1.0 0.00 0.00 0.00 95 1012.6
20260903151359 68 302 0.0 3.0 0.00 0.00 0.00 95 1012.8
20260903150844 68 302 0.0 3.0 0.00 0.00 0.00 95 1012.7
20260903150359 68 302 1.0 3.0 0.00 0.00 0.00 95 1012.7
20260903145905 68 302 1.0 3.0 0.00 0.00 0.00 95 1012.7
20260903145351 68 303 0.0 1.0 0.00 0.00 0.00 95 1012.8
20260903144911 67 303 0.0 1.0 0.00 0.00 0.00 95 1012.8
20260903144356 67 303 0.0 2.0 0.00 0.00 0.00 95 1012.9
20260903143900 67 303 0.0 3.0 0.00 0.00 0.00 95 1013.0
20260903143401 67 302 1.0 3.0 0.00 0.00 0.00 95 1013.1
20260903142847 67 306 0.0 1.0 0.00 0.00 0.00 95 1013.0
20260903142412 66 306 0.0 0.0 0.00 0.00 0.00 95 1012.9
20260903141912 66 306 0.0 0.0 0.00 0.00 0.00 95 1013.0
20260903141355 66 306 0.0 2.0 0.00 0.00 0.00 95 1013.0
20260903140857 66 306 0.0 2.0 0.00 0.00 0.00 95 1013.1
20260903140345 66 306 0.0 0.0 0.00 0.00 0.00 95 1013.3
20260903135857 65 306 0.0 2.0 0.00 0.00 0.00 95 1013.4
20260903135358 65 306 1.0 2.0 0.00 0.00 0.00 95 1013.5
20260903134858 65 307 0.0 1.0 0.00 0.00 0.00 95 1013.5
20260903134403 65 307 0.0 1.0 0.00 0.00 0.00 95 1013.4
20260903133848 65 307 0.0 0.0 0.00 0.00 0.00 95 1013.4
20260903133348 65 307 0.0 1.0 0.00 0.00 0.00 95 1013.4
20260903132852 65 307 0.0 1.0 0.00 0.00 0.00 95 1013.4
20260903132417 65 307 0.0 0.0 0.00 0.00 0.00 95 1013.4
20260903131857 65 307 0.0 2.0 0.00 0.00 0.00 94 1013.4
20260903131358 65 307 0.0 2.0 0.00 0.00 0.00 94 1013.5
20260903130901 65 307 0.0 0.0 0.00 0.00 0.00 94 1013.4
20260903130413 64 307 0.0 0.0 0.00 0.00 0.00 95 1013.3
20260903125903 64 307 0.0 0.0 0.00 0.01 0.00 95 1013.3
20260903125404 64 307 0.0 0.0 0.00 0.01 0.00 95 1013.5
20260903124919 64 307 0.0 0.0 0.00 0.01 0.00 95 1013.5
20260903124348 64 307 0.0 0.0 0.00 0.01 0.00 94 1013.5
20260903123851 64 307 0.0 0.0 0.00 0.01 0.00 94 1013.6
20260903123408 64 307 0.0 0.0 0.00 0.01 0.00 94 1013.7
20260903122851 64 307 0.0 0.0 0.00 0.01 0.00 94 1013.7
20260903122352 64 307 0.0 0.0 0.00 0.01 0.00 94 1013.9
20260903121915 64 307 0.0 2.0 0.00 0.01 0.00 94 1013.9
20260903121400 64 308 0.0 2.0 0.00 0.01 0.00 94 1013.9
20260903120846 64 307 0.0 0.0 0.00 0.01 0.00 94 1013.9
20260903120342 64 307 0.0 0.0 0.00 0.01 0.00 94 1014.2
20260903115914 64 307 0.0 0.0 0.00 0.01 0.00 94 1014.2
20260903115419 64 307 0.0 0.0 0.00 0.01 0.00 94 1014.3
20260903114919 64 307 0.0 0.0 0.00 0.01 0.00 94 1014.3
20260903114343 64 307 0.0 0.0 0.00 0.01 0.00 94 1014.3
20260903113850 64 307 0.0 0.0 0.00 0.01 0.00 94 1014.3
20260903113350 64 307 0.0 0.0 0.00 0.01 0.00 94 1014.4
20260903112857 64 307 0.0 0.0 0.00 0.01 0.00 94 1014.4
20260903112343 64 307 0.0 0.0 0.00 0.01 0.00 94 1014.2
20260903111846 64 307 0.0 1.0 0.00 0.01 0.00 94 1014.3
20260903111351 64 307 0.0 1.0 0.00 0.01 0.00 94 1014.4
20260903110857 64 307 0.0 1.0 0.00 0.01 0.00 94 1014.3
20260903110354 64 307 0.0 2.0 0.00 0.01 0.00 94 1014.3
20260903105845 64 306 0.0 1.0 0.00 0.01 0.00 94 1014.5
20260903105352 64 306 0.0 2.0 0.00 0.01 0.00 94 1014.3
20260903104853 64 305 0.0 2.0 0.00 0.01 0.00 93 1014.4
20260903104400 64 305 0.0 4.0 0.00 0.01 0.00 93 1014.3
20260903103844 64 305 1.0 4.0 0.00 0.01 0.00 93 1014.5
20260903103406 64 168 0.0 3.0 0.00 0.01 0.00 93 1014.1
20260903102851 64 163 0.0 0.0 0.00 0.01 0.00 93 1013.9
20260903102419 64 163 0.0 1.0 0.00 0.01 0.00 93 1013.9
20260903101901 64 163 0.0 1.0 0.00 0.01 0.00 93 1013.9
20260903101346 63 163 0.0 0.0 0.00 0.01 0.00 93 1014.0
20260903100852 63 163 0.0 0.0 0.00 0.01 0.00 93 1014.0
20260903100349 63 163 0.0 0.0 0.00 0.01 0.00 93 1013.9
20260903095858 63 163 0.0 0.0 0.00 0.01 0.00 93 1013.9
20260903095403 63 163 0.0 0.0 0.00 0.01 0.00 93 1014.0
20260903094843 63 163 0.0 0.0 0.00 0.01 0.00 92 1014.0
20260903094348 63 163 0.0 0.0 0.00 0.01 0.00 93 1014.1
20260903093852 63 163 0.0 0.0 0.00 0.01 0.00 92 1014.2
20260903093356 63 163 0.0 0.0 0.00 0.01 0.00 92 1014.2
20260903092901 63 163 0.0 0.0 0.00 0.01 0.00 92 1014.3
20260903092347 63 163 0.0 0.0 0.00 0.01 0.00 92 1014.4
20260903091848 63 163 0.0 0.0 0.00 0.01 0.00 92 1014.4
20260903091413 64 163 0.0 1.0 0.00 0.01 0.00 91 1014.3
20260903090859 64 163 0.0 3.0 0.00 0.01 0.00 91 1014.4
20260903090356 64 163 1.0 2.0 0.00 0.01 0.00 91 1014.4
20260903085845 64 163 0.0 0.0 0.00 0.01 0.00 90 1014.6
20260903085352 64 163 0.0 0.0 0.00 0.01 0.00 90 1014.6
20260903084854 64 163 0.0 0.0 0.00 0.01 0.00 89 1014.7
20260903084400 64 163 0.0 0.0 0.00 0.01 0.00 89 1014.8
20260903083845 64 163 0.0 0.0 0.00 0.01 0.00 89 1014.7
20260903083345 65 163 0.0 0.0 0.00 0.01 0.00 88 1014.7
20260903082911 65 163 0.0 1.0 0.00 0.01 0.00 87 1015.0
20260903082415 65 163 0.0 1.0 0.00 0.01 0.00 87 1015.0
20260903081856 65 163 0.0 3.0 0.00 0.01 0.00 86 1015.1
20260903081343 65 163 0.0 2.0 0.00 0.01 0.00 85 1015.0
20260903080849 65 164 0.0 1.0 0.00 0.01 0.00 85 1015.2
20260903080347 66 164 0.0 2.0 0.00 0.01 0.00 84 1015.0
20260903075859 66 163 0.0 2.0 0.00 0.01 0.00 83 1015.1
20260903075405 66 161 0.0 2.0 0.00 0.01 0.00 83 1015.1
20260903074847 65 163 0.0 3.0 0.00 0.01 0.00 82 1015.1
20260903074351 65 158 0.0 3.0 0.00 0.01 0.00 82 1015.2
20260903073858 66 155 1.0 3.0 0.00 0.01 0.00 82 1015.1
20260903073400 66 151 0.0 3.0 0.00 0.01 0.00 82 1015.1
20260903072846 66 148 0.0 3.0 0.00 0.01 0.00 82 1015.2
20260903072354 66 148 0.0 4.0 0.00 0.01 0.00 82 1015.3
20260903071916 66 148 1.0 4.0 0.00 0.01 0.00 82 1015.4
20260903071401 66 142 1.0 3.0 0.00 0.01 0.00 82 1015.4
20260903070847 66 236 0.0 3.0 0.00 0.01 0.00 82 1015.6
20260903070345 66 242 0.0 2.0 0.00 0.01 0.00 82 1015.6
20260903065856 66 242 0.0 2.0 0.00 0.01 0.00 82 1015.7
20260903065342 66 242 0.0 2.0 0.00 0.01 0.00 82 1015.8
20260903064845 66 244 0.0 2.0 0.00 0.01 0.00 82 1016.0
20260903064351 66 244 0.0 2.0 0.00 0.01 0.00 82 1016.3
20260903063857 66 244 0.0 2.0 0.00 0.01 0.00 82 1016.4
20260903063400 66 244 0.0 0.0 0.00 0.01 0.00 82 1016.5
20260903062906 66 244 0.0 0.0 0.00 0.01 0.00 82 1016.5
20260903062411 66 244 0.0 1.0 0.00 0.01 0.00 82 1016.7
20260903061853 66 244 0.0 4.0 0.00 0.01 0.00 82 1016.6
20260903061400 66 246 0.0 4.0 0.00 0.01 0.00 81 1016.7
20260903060847 66 194 0.0 2.0 0.00 0.01 0.00 81 1016.6
20260903060342 66 194 1.0 2.0 0.00 0.01 0.00 81 1016.9
20260903055851 66 202 0.0 2.0 0.00 0.01 0.00 81 1016.9
20260903055359 66 228 0.0 3.0 0.00 0.01 0.00 81 1017.1
20260903054844 66 229 0.0 3.0 0.00 0.01 0.00 81 1017.4
20260903054349 66 230 0.0 4.0 0.00 0.01 0.00 82 1017.5
20260903053857 66 230 0.0 5.0 0.00 0.01 0.00 82 1017.5
20260903053359 66 237 1.0 5.0 0.00 0.01 0.00 82 1017.6
20260903052846 66 238 0.0 5.0 0.00 0.01 0.00 82 1017.5
20260903052413 66 159 0.0 2.0 0.00 0.01 0.00 82 1017.3
20260903051914 66 159 1.0 2.0 0.00 0.01 0.00 82 1017.4
20260903051358 66 198 0.0 3.0 0.00 0.01 0.00 83 1017.4
20260903050903 66 226 0.0 3.0 0.00 0.01 0.00 83 1017.4
20260903050359 66 226 0.0 3.0 0.00 0.01 0.00 83 1017.5
20260903045851 66 227 0.0 4.0 0.00 0.01 0.00 83 1017.7
20260903045355 66 227 1.0 4.0 0.00 0.01 0.00 83 1017.9
20260903044857 66 227 0.0 3.0 0.00 0.01 0.00 83 1018.1
20260903044343 66 227 0.0 3.0 0.00 0.01 0.00 83 1017.9
20260903043909 66 225 0.0 3.0 0.00 0.01 0.00 83 1017.9
20260903043410 66 197 0.0 3.0 0.00 0.01 0.00 83 1017.8
20260903042913 66 236 0.0 3.0 0.00 0.01 0.00 82 1017.7
20260903042356 66 227 0.0 1.0 0.00 0.01 0.00 82 1017.7
20260903041859 66 227 0.0 1.0 0.00 0.01 0.00 82 1017.7
20260903041344 66 227 0.0 1.0 0.00 0.01 0.00 82 1017.9
20260903040851 66 227 0.0 2.0 0.00 0.01 0.00 82 1017.9
20260903040401 66 229 0.0 2.0 0.00 0.01 0.00 82 1017.8
20260903035845 66 230 0.0 2.0 0.00 0.01 0.01 82 1017.7
20260903035350 66 230 0.0 3.0 0.00 0.01 0.01 82 1017.7
20260903034913 66 227 1.0 3.0 0.00 0.01 0.01 82 1017.6
20260903034358 66 225 0.0 2.0 0.00 0.01 0.01 82 1017.8
20260903033843 66 225 0.0 1.0 0.00 0.01 0.01 82 1017.9
20260903033343 66 226 0.0 4.0 0.00 0.01 0.01 82 1017.9
20260903032848 66 223 1.0 4.0 0.00 0.01 0.01 82 1018.1
20260903032355 66 192 0.0 4.0 0.00 0.01 0.01 83 1018.2
20260903031859 66 182 0.0 2.0 0.00 0.01 0.01 83 1018.2
20260903031343 67 235 0.0 2.0 0.00 0.01 0.01 83 1018.3
20260903030849 67 235 0.0 1.0 0.00 0.01 0.01 83 1018.4
20260903030404 67 236 0.0 1.0 0.00 0.01 0.01 84 1018.3
20260903025851 67 236 0.0 1.0 0.00 0.01 0.01 84 1018.5
20260903025357 67 236 0.0 5.0 0.00 0.01 0.01 84 1018.5
20260903024921 67 236 2.0 5.0 0.00 0.01 0.01 84 1018.5
20260903024342 67 158 0.0 6.0 0.00 0.01 0.01 84 1018.6
20260903023845 67 229 1.0 6.0 0.00 0.01 0.01 84 1018.5
20260903023348 67 181 0.0 2.0 0.00 0.01 0.01 83 1018.5
20260903022855 67 165 0.0 1.0 0.00 0.01 0.01 83 1018.7
20260903022402 67 165 0.0 2.0 0.00 0.01 0.01 83 1018.6
20260903021843 67 165 0.0 3.0 0.00 0.01 0.01 83 1018.6
20260903021348 67 160 0.0 3.0 0.00 0.01 0.01 83 1018.5
20260903020912 67 228 0.0 1.0 0.00 0.01 0.01 83 1018.5
20260903020343 67 229 0.0 1.0 0.00 0.01 0.01 83 1018.5
20260903015915 67 229 0.0 1.0 0.00 0.01 0.01 83 1018.6
20260903015359 67 229 0.0 2.0 0.00 0.01 0.01 83 1018.7
20260903014840 67 229 0.0 2.0 0.00 0.01 0.01 82 1018.6
20260903014346 67 227 0.0 2.0 0.00 0.01 0.01 82 1018.5
20260903013849 67 227 0.0 3.0 0.00 0.01 0.01 82 1018.5
20260903013347 67 226 0.0 3.0 0.00 0.01 0.01 82 1018.5
20260903012852 67 225 0.0 3.0 0.00 0.01 0.01 82 1018.3
20260903012418 67 226 1.0 3.0 0.00 0.01 0.01 82 1018.3
20260903011840 67 233 0.0 4.0 0.00 0.01 0.01 81 1018.4
20260903011346 67 236 0.0 4.0 0.00 0.01 0.01 81 1018.5
20260903010853 67 238 0.0 3.0 0.00 0.01 0.01 81 1018.7
20260903010353 67 150 1.0 3.0 0.00 0.01 0.01 81 1018.5
20260903005840 67 154 0.0 4.0 0.00 0.01 0.01 80 1018.5
20260903005348 67 149 2.0 4.0 0.00 0.01 0.01 80 1018.8
20260903004912 68 148 0.0 3.0 0.00 0.01 0.01 80 1018.7
20260903004357 68 148 0.0 5.0 0.00 0.01 0.01 80 1018.6
20260903003843 68 144 2.0 6.0 0.00 0.01 0.01 79 1018.5
20260903003347 68 87 1.0 6.0 0.00 0.01 0.01 80 1018.7
20260903002855 68 151 1.0 7.0 0.00 0.01 0.01 79 1018.7
20260903002419 68 131 2.0 5.0 0.00 0.01 0.01 79 1018.6
20260903001902 68 127 2.0 5.0 0.00 0.01 0.01 79 1018.7
20260903001346 68 117 2.0 5.0 0.00 0.01 0.01 79 1018.9
20260903000852 68 115 1.0 6.0 0.00 0.01 0.01 79 1019.0
20260903000348 68 166 2.0 6.0 0.00 0.01 0.01 79 1019.1
20260902235856 68 134 1.0 5.0 0.00 0.01 0.01 78 1019.2
20260902235358 68 173 0.0 4.0 0.00 0.01 0.01 78 1019.2
20260902234900 68 196 1.0 4.0 0.00 0.01 0.01 78 1019.3
20260902234345 68 149 0.0 5.0 0.00 0.01 0.01 78 1019.2
20260902233902 68 148 1.0 5.0 0.00 0.01 0.01 77 1019.4
20260902233406 68 153 2.0 5.0 0.00 0.01 0.01 77 1019.4
20260902232851 69 153 0.0 3.0 0.00 0.01 0.01 76 1019.5
20260902232358 69 153 0.0 5.0 0.00 0.01 0.01 76 1019.4
20260902231858 69 153 1.0 5.0 0.00 0.01 0.01 75 1019.5
20260902231403 69 151 1.0 6.0 0.00 0.01 0.01 75 1019.4
20260902230850 69 108 3.0 8.0 0.00 0.01 0.01 75 1019.3
20260902230345 69 154 2.0 8.0 0.00 0.01 0.01 74 1019.5
20260902225854 69 76 3.0 8.0 0.00 0.01 0.01 74 1019.5
20260902225400 69 138 3.0 7.0 0.00 0.01 0.01 73 1019.4
20260902224902 70 147 3.0 7.0 0.00 0.01 0.01 73 1019.4
20260902224346 70 118 1.0 6.0 0.00 0.01 0.01 72 1019.5
20260902223850 70 130 0.0 6.0 0.00 0.01 0.01 72 1019.5
20260902223411 70 158 3.0 8.0 0.00 0.01 0.01 71 1019.5
20260902222915 70 144 5.0 8.0 0.00 0.01 0.01 71 1019.6
20260902222400 70 124 3.0 7.0 0.00 0.01 0.01 71 1019.6
20260902221920 70 155 2.0 9.0 0.00 0.01 0.01 70 1019.6
20260902221402 70 129 4.0 9.0 0.00 0.01 0.01 70 1019.6
20260902220848 70 144 2.0 9.0 0.00 0.01 0.01 70 1019.6
20260902220403 70 164 4.0 9.0 0.00 0.01 0.01 70 1019.5
20260902215910 71 153 4.0 10.0 0.00 0.01 0.01 69 1019.4
20260902215353 71 148 3.0 6.0 0.00 0.01 0.01 70 1019.5
20260902214857 71 138 2.0 6.0 0.00 0.01 0.01 71 1019.4
20260902214402 71 150 3.0 8.0 0.00 0.01 0.01 71 1019.3
20260902213848 71 170 4.0 9.0 0.00 0.01 0.01 71 1019.4
20260902213351 71 146 3.0 9.0 0.00 0.01 0.01 72 1019.2
20260902212856 71 108 5.0 11.0 0.00 0.01 0.01 71 1019.0
20260902212404 71 61 5.0 13.0 0.00 0.01 0.01 71 1018.9
20260902211846 71 102 6.0 12.0 0.00 0.01 0.01 70 1018.9
20260902211410 71 149 5.0 13.0 0.00 0.01 0.01 70 1018.8
20260902210855 72 151 6.0 13.0 0.00 0.01 0.01 70 1018.9
20260902210347 71 132 2.0 13.0 0.00 0.01 0.01 71 1019.2
20260902205856 71 145 4.0 13.0 0.00 0.01 0.01 70 1019.3
20260902205403 71 83 4.0 10.0 0.00 0.01 0.01 70 1019.3
20260902204924 72 94 5.0 10.0 0.00 0.01 0.01 69 1019.4
20260902204348 72 151 4.0 13.0 0.00 0.01 0.01 69 1019.5
20260902203852 72 92 4.0 13.0 0.00 0.01 0.01 69 1019.5
20260902203354 72 123 6.0 11.0 0.00 0.01 0.01 68 1019.6
20260902202857 72 119 4.0 10.0 0.00 0.01 0.01 67 1019.6
20260902202402 72 142 2.0 9.0 0.00 0.01 0.01 67 1019.6
20260902201904 72 102 4.0 10.0 0.00 0.01 0.01 66 1019.7
20260902201411 72 162 5.0 11.0 0.00 0.01 0.01 66 1019.7
20260902200857 72 80 2.0 9.0 0.00 0.01 0.01 66 1019.8
20260902200412 72 102 5.0 10.0 0.00 0.01 0.01 66 1019.9
20260902195901 73 140 4.0 10.0 0.00 0.01 0.01 66 1019.8
20260902195345 73 139 2.0 10.0 0.00 0.01 0.01 66 1019.8
20260902194903 73 151 6.0 10.0 0.00 0.01 0.01 66 1019.8
20260902194407 73 147 4.0 9.0 0.00 0.01 0.01 66 1019.7
20260902193852 73 121 4.0 9.0 0.00 0.01 0.01 65 1019.8
20260902193352 73 144 3.0 11.0 0.00 0.01 0.01 66 1019.8